Voltar ao catálogo

DMSP 5D-2 F13 DEB

AtivoSSO
NORAD 42285·DEBRIS·🇺🇸 United States

Lançado Mar 24, 1995 de Vandenberg Space Force Base

Loading…

Próximas Passagens (próximas 24 horas)

TLE

AtualizadoSource: Space-Track

Época: Sep 12, 2026, 19:47 UTC

1 42285U 95015HB  26255.82445711  .00002212  00000-0  90952-3 0  9998
2 42285  98.8971 289.4301 0032963 133.5542 226.8384 14.27724491580364

Acompanhe DMSP 5D-2 F13 DEB em tempo real com AllMySat

Download on the App Store